Find Local Weather

World > North America > United States > New York

Mohawk, New York Regional Weather

Lat: 43.01N, Lon: 75.01W
Wx Zone: NYZ038
Feedback
Expires:201812111400;;631142
ASUS41 KGYX 111310
RWRGYX
WEATHER ROUNDUP FOR MAINE AND NEW HAMPSHIRE
NATIONAL WEATHER SERVICE GRAY ME
800 AM EST TUE DEC 11 2018


MAZ007-012-024-CTZ003-RIZ002-NYZ038-NYZ072-111400-
SOUTHERN NEW ENGLAND AND NY
  
CITY           SKY/WX    TMP DP  RH WIND       PRES   REMARKS
BOSTON         FAIR      25  10  53 NW6       30.20S                  
WORCESTER      FAIR      21  11  65 SW3       30.11F                  
NANTUCKET      FAIR      29  26  89 N5        30.18S                  
PROVIDENCE     FAIR      21  15  78 N5        30.20S                  
HARTFORD       FAIR      16  13  88 CALM      30.18F                  
ALBANY         FAIR      15   9  76 CALM      30.17F                  
NEW YORK CITY  FAIR      31  21  66 NE6       30.16F                  
$$


SKY/WX - Weather  TMP - Temperature  DP - Dew Point  RH - Relative Humidity
WIND - Wind Direction/Speed PRES - Barometric Pressure